Location: Unspecified
(0.0000°N, 0.0000°E)
Time: 06:47:56
(UTC+01:00)

ISS - All Passes

Search period start: 07 February 2016 00:00
Search period end: 17 February 2016 00:00
Orbit: 399 x 408 km, 51.6° (Epoch: 06 February)

Date Brightness Start Highest point End Pass type
(mag) Time Alt. Az. Time Alt. Az. Time Alt. Az.
07 Feb - 02:56:45 10° NNW 02:59:48 38° NE 03:02:53 10° SE night (unlit)
07 Feb - 14:30:57 10° S 14:33:38 23° SE 14:36:19 10° ENE daylight
08 Feb - 02:05:25 10° NNE 02:07:18 15° NE 02:09:12 10° E night (unlit)
08 Feb - 03:41:26 10° W 03:43:33 16° SW 03:45:41 10° SSW night (unlit)
08 Feb - 15:14:35 10° WSW 15:17:23 25° NW 15:20:08 10° N daylight
09 Feb - 02:47:54 10° NW 02:51:01 43° SW 02:54:09 10° SSE night (unlit)
09 Feb - 14:21:35 10° SW 14:24:51 79° NW 14:28:06 10° NNE daylight
10 Feb - 01:55:19 10° NNW 01:58:30 56° NE 02:01:42 10° SE night (unlit)
10 Feb - 13:29:20 10° S 13:32:18 32° SE 13:35:16 10° ENE daylight
11 Feb - 01:03:31 10° N 01:05:57 19° NE 01:08:22 10° ESE night (unlit)
11 Feb - 02:40:51 10° WSW 02:42:12 12° SW 02:43:33 10° SSW night (unlit)
11 Feb - 12:38:14 10° SSE 12:39:43 12° SE 12:41:12 10° E daylight
11 Feb - 14:13:34 10° WSW 14:15:59 19° NW 14:18:23 10° N daylight
12 Feb - 01:46:41 10° WNW 01:49:36 31° SW 01:52:32 10° S night (unlit)
12 Feb - 13:20:11 10° SW 13:23:23 54° NW 13:26:35 10° NNE daylight
13 Feb - 00:53:47 10° NNW 00:57:00 82° NE 01:00:16 10° SE night (unlit)
13 Feb - 12:27:39 10° SSW 12:30:48 45° SE 12:33:55 10° NE daylight
14 Feb - 00:01:38 10° N 00:04:24 26° NE 00:07:12 10° ESE night (unlit)
14 Feb - 11:35:58 10° SSE 11:38:10 17° SE 11:40:20 10° E daylight
14 Feb - 13:12:32 10° W 13:14:24 14° NW 13:16:16 10° NNW daylight
14 Feb - 23:11:28 10° NE 23:11:46 10° NE 23:12:04 10° ENE night (unlit)
15 Feb - 00:45:22 10° WNW 00:48:00 23° SW 00:50:39 10° S night (unlit)
15 Feb - 12:18:41 10° SW 12:21:46 38° NW 12:24:49 10° NNE daylight
15 Feb - 23:52:09 10° NW 23:55:21 69° SW 23:58:35 10° SSE night (unlit)
16 Feb - 11:25:51 10° SSW 11:29:06 65° SE 11:32:20 10° NE daylight
16 Feb - 22:59:42 10° NNW 23:02:42 35° NE 23:05:43 10° ESE night (unlit)
